Location: Albany
(35.0000°S, 118.0000°E)
Time: 21:55:45
(UTC-05:00)

ADEOS Rocket - Visible Passes

Search period start: 28 February 2015 00:00
Search period end: 10 March 2015 01:00
Orbit: 860 x 1306 km, 98.7° (Epoch: 28 February)

Date Brightness Start Highest point End Pass type
(mag) Time Alt. Az. Time Alt. Az. Time Alt. Az.
28 Feb 2.9 07:37:02 10° SSE 07:42:49 85° WSW 07:49:05 10° NNW visible
28 Feb 5.8 09:27:10 10° WSW 09:27:49 10° WSW 09:28:02 10° WSW visible
01 Mar 3.5 06:48:31 10° SSE 06:53:49 36° E 06:59:36 10° NNE visible
01 Mar 4.7 08:34:25 10° SSW 08:39:18 28° WSW 08:44:22 10° NW visible
02 Mar 3.1 07:44:44 10° S 07:50:32 73° WSW 07:56:51 10° NNW visible
03 Mar 3.3 06:56:02 10° SSE 07:01:36 44° E 07:07:42 10° N visible
03 Mar 5.0 08:42:20 10° SSW 08:47:00 24° WSW 08:51:45 10° WNW visible
04 Mar 4.4 06:08:49 10° SE 06:12:20 16° E 06:16:21 10° NE visible
04 Mar 3.4 07:52:28 10° S 07:58:16 62° WSW 08:04:35 10° NNW visible
05 Mar 3.1 07:03:35 10° SSE 07:09:22 53° E 07:15:44 10° N visible
05 Mar 5.2 08:50:19 10° SSW 08:54:41 21° WSW 08:59:04 10° WNW visible
06 Mar 4.2 06:15:57 10° SE 06:20:11 20° E 06:24:57 10° NE visible
06 Mar 3.7 08:00:13 10° S 08:05:59 53° WSW 08:12:16 10° NNW visible
07 Mar 3.0 07:11:10 10° SSE 07:17:08 63° E 07:23:42 10° N visible
07 Mar 5.4 08:58:21 10° SSW 09:02:22 18° WSW 09:06:17 10° WNW visible
08 Mar 4.0 07:23:13 10° SE 07:28:02 25° E 07:33:23 10° NNE visible
08 Mar 4.0 09:08:01 10° S 09:13:43 45° WSW 09:19:54 10° NW visible
09 Mar 3.0 08:18:48 10° SSE 08:24:54 75° ENE 08:31:38 10° N visible
09 Mar 5.6 10:06:30 10° SSW 10:10:02 15° WSW 10:13:24 10° W visible
